Regional Weather Roundup
Issued by NWS Grand Forks, ND

Home | Current Version | Previous Version | Graphics & Text | Print | Product List | Glossary On
Versions: 1 2 3 4 5 6 7 8 9 10 11 12 13 14 15 16 17 18 19 20 21 22 23 24 25 26 27 28 29 30 31 32 33 34 35 36 37 38 39 40 41 42 43 44 45 46 47 48 49 50
000
ASUS43 KFGF 232031
RWRFGF
PRAIRIE TO PINES  WEATHER ROUNDUP
NATIONAL WEATHER SERVICE EASTERN NORTH DAKOTA/GRAND FORKS ND
300 PM CDT SAT SEP 23 2017

 **SATELLITE DATA USED TO AUGMENT SKY COVER AT AUTOMATED STATIONS**
 *****  WEATHER ACROSS EASTERN NORTH DAKOTA  *****

CITY           SKY/WX    TMP DP  RH WIND       PRES   REMARKS
GRAND FORKS    PTSUNNY   62  51  67 N14       30.04F
GRAND FRKS AFB CLOUDY    61  48  63 N12       30.05F
DEVILS LAKE    FAIR      57  45  62 N13       30.07F
FARGO          CLOUDY    60  50  69 N12       30.04R
WAHPETON ARPT  CLOUDY    57  50  77 N10       30.01S
$$

 ***** WEATHER ACROSS CENTRAL AND WESTERN NORTH DAKOTA  *****

CITY           SKY/WX    TMP DP  RH WIND       PRES   REMARKS
BISMARCK       FAIR      58  46  64 N13       30.07S
MINOT          CLOUDY    54  42  64 NW9       30.11S
JAMESTOWN      CLOUDY    59  47  64 NE8       30.04F
MINOT AFB      CLOUDY    54  41  62 NW9       30.11R
GARRISON         N/A     52  42  69 N7        30.11R
WILLISTON      CLOUDY    51  39  63 NE3       30.14F
DICKINSON      LGT RAIN  47  44  90 N9        30.07F
HETTINGER      CLOUDY    47  43  86 NE16      30.07F
$$

 *****  OTHER AIRPORT OBSERVATIONS IN OUR AREA  *****

CITY           SKY/WX    TMP DP  RH WIND       PRES   REMARKS
WALHALLA       FAIR     N/A N/A N/A N12G17    30.08S
GRAFTON AIRPOR FAIR      59  48  67 N15       30.07F
VALLEY CITY AR CLOUDY    59  52  77 NE12      30.05F
CANDO          CLOUDY    57  45  62 NE8       30.11R
CAVALIER APRT  MOCLDY    59  48  67 N14       30.07R
GWINNER        CLOUDY    57  50  77 N10       30.02S
SHEYENNE NWR     N/A     59  51  75 NE7       29.95S
ROLLA          CLOUDY    52  43  71 N9        30.11R
 ***** THE ABOVE OBSERVATIONS ARE NON NWS ARE NOT QUALITY
       CONTROLLED AND MAY MIS-REPORT RAIN FOR SNOW...
$$

  *****  WEATHER ACROSS NORTHERN MINNESOTA  *****

CITY           SKY/WX    TMP DP  RH WIND       PRES   REMARKS
FLAG ISLAND    CLOUDY    55  52  88 NW9       30.02S
WARROAD        CLOUDY    55  52  88 NW8       30.04S
ROSEAU           N/A     57  52  82 N6        30.05R
HALLOCK          N/A     63  50  63 N8G16     30.06R
THF RVR FALLS  CLOUDY    57  50  77 N7        30.06S
BAUDETTE       CLOUDY    55  53  93 NW9       30.02F
WASKISH        CLOUDY    55  54  94 NW5       30.05R
CROOKSTON      CLOUDY    59  50  72 N14       30.04S
STEPHEN NDAWN    N/A     61  48  63 VRB12       N/A
GREENBUSH NDAW   N/A     61  52  72 N7          N/A
$$
  *****  WEATHER ACROSS CENTRAL AND WEST MINNESOTA  *****

CITY           SKY/WX    TMP DP  RH WIND       PRES   REMARKS
FOSSTON        CLOUDY    54  52  94 N5        30.04F
BEMIDJI        CLOUDY    55  52  90 NW6       30.03S
PARK RAPIDS    LGT RAIN  57  54  89 N7        30.00F
ELBOW LAKE     CLOUDY    55  55  98 N12       29.99F
WADENA         LGT RAIN  55  55 100 N8        29.98F
DETROIT LAKES  CLOUDY    54  52  94 N9        30.03R
MOORHEAD       CLOUDY    59  50  72 N9        30.03F
FERGUS FALLS   CLOUDY    55  55 100 N9        30.00F
MORRIS MN      NOT AVBL
STAPLES        LGT RAIN  57  57 100 CALM      29.99F
$$
  *****  WEATHER ELSEWHERE ACROSS MINNESOTA  *****

CITY           SKY/WX    TMP DP  RH WIND       PRES   REMARKS
DULUTH         FAIR      82  70  66 SW10      29.96R
INTRNTL FALLS  CLOUDY    58  54  86 W7        30.02R
ELY            CLOUDY    68  63  83 W9        30.01R
CLOQUET        PTSUNNY   81  68  65 SW8       29.96S
WHEATON        CLOUDY    55  52  88 NW14      30.02R
BRAINERD       PTSUNNY   68  61  78 N7        29.99F
HIBBING        FAIR      67  62  84 NW12      30.00S
ALEXANDRIA     PTSUNNY   60  59  96 E20       29.94F
SAINT CLOUD    CLOUDY    73  68  84 NW13      29.96R
MINNEAPOLIS    PTSUNNY   88  71  57 S9        29.93F HX  94
$$

  *****  WEATHER ACROSS SOUTH DAKOTA  *****

CITY           SKY/WX    TMP DP  RH WIND       PRES   REMARKS
SIOUX FALLS    CLOUDY    76  69  79 CALM      29.92F
BROOKINGS      TSTM      63  63 100 W14G23    30.00R FOG
WATERTOWN      CLOUDY    53  53 100 NE13      29.98R
HURON          HVY RAIN  54  54 100 N13       29.94F VSB 1
SISSETON         N/A     55  53  93 N14       29.99F
ABERDEEN       CLOUDY    53  51  93 NE15      30.01F
MITCHELL       TSTM      57  57 100 N6        29.95R FOG
PIERRE         CLOUDY    51  49  92 NE14      29.99F
MOBRIDGE       CLOUDY    56  47  71 NE12      30.02S
RAPID CITY     LGT RAIN  46  45  93 N12       30.02F FOG
$$

  *****  SOME WEATHER IN NEARBY STATES *****

CITY           SKY/WX    TMP DP  RH WIND       PRES   REMARKS
GLASGOW MT     PTSUNNY   50  35  56 SE7       30.13S
GREAT FALLS MT FAIR      50  30  46 SW8       30.06F
CHEYENNE WY    CLOUDY    45  39  79 NE9       29.98F
SCOTTSBLUFF NE CLOUDY    47  43  86 N7        29.98F
OMAHA NE       PTSUNNY   91  65  41 SE21G29   29.91F HX  93
DES MOINES IA  FAIR      92  64  39 S13       29.96F HX  93
DAVENPORT IA   FAIR      92  62  36 CALM      30.04F HX  92
CHICAGO IL     FAIR      92  64  39 E10       30.04F HX  93
EAU CLAIRE WI  FAIR      88  67  49 S13       29.97F HX  91
LA CROSSE WI   FAIR      94  65  38 S13G21    29.98F HX  96
$$

  *****  SOME NATIONAL WEATHER *****

CITY           SKY/WX    TMP DP  RH WIND       PRES   REMARKS
LA GUARDIA NY  FAIR      85  48  27 N16G23    29.99F
RALEIGH NC     FAIR      86  56  35 E6G20     30.05F
ATLANTA GA     FAIR      86  63  45 NE5       30.03F
NEW ORLEANS LA FAIR      90  70  51 NE10G21   29.91F HX  95
OKLAHOMA CITY  PTSUNNY   89  65  44 S17G23    29.93F HX  91
ALBUQUERQUE NM FAIR      80  42  25 S28G38    29.81F
SALT LAKE CITY CLOUDY    55  37  50 NW12      29.93F
LOS ANGELES CA FAIR      71  57  61 SW12      29.86S
BOISE ID       FAIR      55  39  54 NW7       30.05F
SEATTLE WA     PTSUNNY   63  51  65 W7        30.11F
$$

*** WEATHER ACROSS MANITOBA...SASKATCHEWAN AND ONTARIO ***
                ***ONTARIO***

CITY           SKY/WX    TMP DP  RH WIND       PRES   REMARKS
GERALDTON      PTSUNNY   79  70  73 SW9       29.88S
THUNDER BAY    PTSUNNY   82  64  54 W16G23    29.90S
SIOUX LOOKOUT  CLOUDY    59  55  88 NW5       29.96R
TORONTO        MOSUNNY   91  64  40 NW7       30.07F HX  93
BIG TROUT LK   LGT RAIN  48  48 100 NE8       30.01R
PICKLE LAKE    DRIZZLE   57  55  94 VRB3      29.93R FOG
DRYDEN         CLOUDY    57  55  94 W9        29.99R
KENORA         DRIZZLE   54  52  94 NW7       30.02R FOG
$$
                *** MANITOBA***

CITY           SKY/WX    TMP DP  RH WIND       PRES   REMARKS
BRANDON        PTSUNNY   54  43  66 NE6       30.11S
DAUPHIN        CLOUDY    54  43  66 N3        30.12S
ISLAND LAKE    NOT AVBL
PILOT MOUND      N/A     52  45  76 N9          N/A
THE PAS        CLOUDY    48  45  87 VRB2      30.14S
THOMPSON       CLOUDY    43  37  81 N7        30.18S
WINNIPEG       CLOUDY    59  46  63 NW10G17   30.07R
LYNN LAKE      CLOUDY    43  39  87 E5        30.19S
CHURCHILL      CLOUDY    41  34  75 N12       30.22S
GILLAM         CLOUDY    43  39  87 N13       30.18S
$$
                ***SASKATCHEWAN***

CITY           SKY/WX    TMP DP  RH WIND       PRES   REMARKS
ESTEVAN        CLOUDY    50  36  57 NW5       30.14F
KINDERSLEY     CLOUDY    50  37  62 SW9       30.10S
LLOYDMINSTER   CLOUDY    48  37  66 S6        30.09S
PRINCE ALBERT  CLOUDY    50  39  66 VRB3      30.14S
REGINA         PTSUNNY   50  34  53 W5        30.14F
YORKTON        CLOUDY    50  37  62 W7        30.14S
N. BATTLEFORD  MOSUNNY   50  36  57 SW6       30.13S
LA RONGE       DRIZZLE   46  43  87 VRB2      30.14S
SASKATOON      CLOUDY    50  39  66 W6        30.13F
SWIFT CURRENT    N/A     50  34  53 SW8       30.09F
$$
NOTE: THESE ARE AUTOMATED STATIONS WITH LIMITED QUALITY CONTROL
      "FAIR" INDICATES FEW OR NO CLOUDS BELOW 12,000 FEET WITH NO
      SIGNIFICANT WEATHER AND/OR OBSTRUCTIONS TO VISIBILITY.
      SKY/WX - SKY CONDITION AND SIGNIFICANT WEATHER.
      TMP - AIR TEMPERATURE.    DP   - DEWPOINT TEMPERATURE.
      RH  - RELATIVE HUMIDITY.  PRES - PRESSURE.
      HX  - HEAT INDEX.         WCI  - WIND CHILL INDEX.
$



USA.gov is the U.S. government's official web portal to all federal, state and local government web resources and services.